Location: Unnamed
(51.5169°N, 0.1311°W)
Time: 20:09:23
(UTC+01:00)

Tiros 1 - Pass Details

Date: 06 August 2024
Orbit: 623 x 655 km, 48.4° (Epoch: 16 September)

Event Time Altitude Azimuth Distance (km) Brightness Sun altitude
Rises 07:57:09 0° 217° (SW) 2,970 10.2 20.7°
Reaches altitude 10° 07:59:47 10° 205° (SSW) 2,061 9.6 21.1°
Maximum altitude 08:03:43 26° 149° (SSE) 1,286 9.3 21.7°
Drops below altitude 10° 08:07:39 10° 93° (E) 2,061 11.9 22.3°
Sets 08:10:16 0° 81° (E) 2,970 12.0 22.8°
